Location: Rounton
(54.4000°N, 1.3500°W)
Time: 14:53:43
(UTC+00:00)

Transit 2A - Pass Details

Date: 05 December 2021
Orbit: 591 x 967 km, 66.7° (Epoch: 21 January)

Event Time Altitude Azimuth Distance (km) Brightness Sun altitude
Rises 03:13:45 0° 274° (W) 3,497 - -41.3°
Reaches altitude 10° 03:16:33 10° 285° (WNW) 2,607 - -40.9°
Maximum altitude 03:21:52 30° 345° (NNW) 1,646 - -40.2°
Exits shadow 03:24:34 22° 24° (NNE) 1,963 8.3 -39.8°
Drops below altitude 10° 03:27:25 10° 45° (NE) 2,714 9.4 -39.4°
Sets 03:30:23 0° 56° (ENE) 3,664 10.3 -39.0°
